owner,sensor,date,latitude,longitude,relative_humidity,qcFlag 
DISL,ioos:station:DISL:CATA:1,2019-11-01T00:35:00Z,30.3085,-88.1395,74.6,11111222 
DISL,ioos:station:DISL:CATA:1,2019-11-01T01:35:00Z,30.3085,-88.1395,74.05,11111222 
DISL,ioos:station:DISL:CATA:1,2019-11-01T02:35:00Z,30.3085,-88.1395,72.96,11111222 
DISL,ioos:station:DISL:CATA:1,2019-11-01T03:35:00Z,30.3085,-88.1395,69.64,11111222 
DISL,ioos:station:DISL:CATA:1,2019-11-01T04:35:00Z,30.3085,-88.1395,70.16,11111222 
DISL,ioos:station:DISL:CATA:1,2019-11-01T05:35:00Z,30.3085,-88.1395,73.76,11111222 
DISL,ioos:station:DISL:CATA:1,2019-11-01T06:35:00Z,30.3085,-88.1395,69.34,11111222 
DISL,ioos:station:DISL:CATA:1,2019-11-01T07:35:00Z,30.3085,-88.1395,72.46,11111222 
DISL,ioos:station:DISL:CATA:1,2019-11-01T08:35:00Z,30.3085,-88.1395,76.78,11111222 
DISL,ioos:station:DISL:CATA:1,2019-11-01T09:35:00Z,30.3085,-88.1395,76.89,11111222 
DISL,ioos:station:DISL:CATA:1,2019-11-01T10:35:00Z,30.3085,-88.1395,75.82,11111222 
DISL,ioos:station:DISL:CATA:1,2019-11-01T11:35:00Z,30.3085,-88.1395,72.94,11111222 
DISL,ioos:station:DISL:CATA:1,2019-11-01T12:35:00Z,30.3085,-88.1395,71.36,11111222 
DISL,ioos:station:DISL:CATA:1,2019-11-01T13:35:00Z,30.3085,-88.1395,70.02,11111222 
DISL,ioos:station:DISL:CATA:1,2019-11-01T14:35:00Z,30.3085,-88.1395,67.33,11111222 
DISL,ioos:station:DISL:CATA:1,2019-11-01T15:35:00Z,30.3085,-88.1395,62.86,11111222 
DISL,ioos:station:DISL:CATA:1,2019-11-01T16:35:00Z,30.3085,-88.1395,57.43,11111222 
DISL,ioos:station:DISL:CATA:1,2019-11-01T17:35:00Z,30.3085,-88.1395,52.62,11111222 
DISL,ioos:station:DISL:CATA:1,2019-11-01T18:35:00Z,30.3085,-88.1395,52.86,11111222 
DISL,ioos:station:DISL:CATA:1,2019-11-01T19:36:00Z,30.3085,-88.1395,52.92,11111222 
DISL,ioos:station:DISL:CATA:1,2019-11-01T20:35:00Z,30.3085,-88.1395,45.95,11111222 
DISL,ioos:station:DISL:CATA:1,2019-11-01T21:36:00Z,30.3085,-88.1395,50.38,11111222 
DISL,ioos:station:DISL:CATA:1,2019-11-01T22:36:00Z,30.3085,-88.1395,47.44,11111222 
DISL,ioos:station:DISL:CATA:1,2019-11-01T23:36:00Z,30.3085,-88.1395,59.38,11111222 
DISL,ioos:station:DISL:CATA:1,2019-11-02T00:36:00Z,30.3085,-88.1395,63.94,11111222 
DISL,ioos:station:DISL:CATA:1,2019-11-02T01:36:00Z,30.3085,-88.1395,64.15,11111222 
DISL,ioos:station:DISL:CATA:1,2019-11-02T02:36:00Z,30.3085,-88.1395,67.67,11111222 
DISL,ioos:station:DISL:CATA:1,2019-11-02T03:36:00Z,30.3085,-88.1395,67.26,11111222 
DISL,ioos:station:DISL:CATA:1,2019-11-02T04:36:00Z,30.3085,-88.1395,69.28,11111222 
DISL,ioos:station:DISL:CATA:1,2019-11-02T05:36:00Z,30.3085,-88.1395,69.83,11111222 
DISL,ioos:station:DISL:CATA:1,2019-11-02T06:36:00Z,30.3085,-88.1395,74.84,11111222 
DISL,ioos:station:DISL:CATA:1,2019-11-02T07:36:00Z,30.3085,-88.1395,75.32,11111222 
DISL,ioos:station:DISL:CATA:1,2019-11-02T08:36:00Z,30.3085,-88.1395,77.18,11111222 
DISL,ioos:station:DISL:CATA:1,2019-11-02T09:36:00Z,30.3085,-88.1395,78.9,11111222 
DISL,ioos:station:DISL:CATA:1,2019-11-02T10:36:00Z,30.3085,-88.1395,79.79,11111222 
DISL,ioos:station:DISL:CATA:1,2019-11-02T11:36:00Z,30.3085,-88.1395,79.38,11111222 
DISL,ioos:station:DISL:CATA:1,2019-11-02T12:36:00Z,30.3085,-88.1395,77.6,11111222 
DISL,ioos:station:DISL:CATA:1,2019-11-02T13:36:00Z,30.3085,-88.1395,66.06,11111222 
DISL,ioos:station:DISL:CATA:1,2019-11-02T14:36:00Z,30.3085,-88.1395,48.48,11111222 
DISL,ioos:station:DISL:CATA:1,2019-11-02T15:36:00Z,30.3085,-88.1395,47.62,11111222 
DISL,ioos:station:DISL:CATA:1,2019-11-02T16:36:00Z,30.3085,-88.1395,53.6,11111222 
DISL,ioos:station:DISL:CATA:1,2019-11-02T17:36:00Z,30.3085,-88.1395,46.91,11111222 
DISL,ioos:station:DISL:CATA:1,2019-11-02T18:36:00Z,30.3085,-88.1395,47.57,11111222 
DISL,ioos:station:DISL:CATA:1,2019-11-02T19:36:00Z,30.3085,-88.1395,31.45,11111222 
DISL,ioos:station:DISL:CATA:1,2019-11-02T20:36:00Z,30.3085,-88.1395,28.98,11111222 
DISL,ioos:station:DISL:CATA:1,2019-11-02T21:36:00Z,30.3085,-88.1395,32.28,11111222 
DISL,ioos:station:DISL:CATA:1,2019-11-02T22:36:00Z,30.3085,-88.1395,40.23,11111222 
DISL,ioos:station:DISL:CATA:1,2019-11-02T23:36:00Z,30.3085,-88.1395,48.54,11111222 
DISL,ioos:station:DISL:CATA:1,2019-11-03T00:36:00Z,30.3085,-88.1395,51.97,11111222 
DISL,ioos:station:DISL:CATA:1,2019-11-03T01:36:00Z,30.3085,-88.1395,54.44,11111222 
DISL,ioos:station:DISL:CATA:1,2019-11-03T02:36:00Z,30.3085,-88.1395,55.61,11111222 
DISL,ioos:station:DISL:CATA:1,2019-11-03T03:36:00Z,30.3085,-88.1395,57.05,11111222 
DISL,ioos:station:DISL:CATA:1,2019-11-03T04:36:00Z,30.3085,-88.1395,60.29,11111222 
DISL,ioos:station:DISL:CATA:1,2019-11-03T05:36:00Z,30.3085,-88.1395,61.05,11111222 
DISL,ioos:station:DISL:CATA:1,2019-11-03T06:36:00Z,30.3085,-88.1395,63.45,11111222 
DISL,ioos:station:DISL:CATA:1,2019-11-03T08:36:00Z,30.3085,-88.1395,62.73,11111222 
DISL,ioos:station:DISL:CATA:1,2019-11-03T09:36:00Z,30.3085,-88.1395,63.41,11111222 
DISL,ioos:station:DISL:CATA:1,2019-11-03T10:36:00Z,30.3085,-88.1395,70.24,11111222 
DISL,ioos:station:DISL:CATA:1,2019-11-03T11:36:00Z,30.3085,-88.1395,77.46,11111222 
DISL,ioos:station:DISL:CATA:1,2019-11-03T12:36:00Z,30.3085,-88.1395,79.47,11111222 
DISL,ioos:station:DISL:CATA:1,2019-11-03T13:36:00Z,30.3085,-88.1395,68.14,11111222 
DISL,ioos:station:DISL:CATA:1,2019-11-03T14:36:00Z,30.3085,-88.1395,57.22,11111222 
DISL,ioos:station:DISL:CATA:1,2019-11-03T15:36:00Z,30.3085,-88.1395,51.32,11111222 
DISL,ioos:station:DISL:CATA:1,2019-11-03T16:36:00Z,30.3085,-88.1395,52.02,11111222 
DISL,ioos:station:DISL:CATA:1,2019-11-03T17:36:00Z,30.3085,-88.1395,47.5,11111222 
DISL,ioos:station:DISL:CATA:1,2019-11-03T18:36:00Z,30.3085,-88.1395,46.3,11111222 
DISL,ioos:station:DISL:CATA:1,2019-11-03T19:36:00Z,30.3085,-88.1395,45.61,11111222 
DISL,ioos:station:DISL:CATA:1,2019-11-03T20:36:00Z,30.3085,-88.1395,43.9,11111222 
DISL,ioos:station:DISL:CATA:1,2019-11-03T21:36:00Z,30.3085,-88.1395,35.4,11111222 
DISL,ioos:station:DISL:CATA:1,2019-11-03T22:36:00Z,30.3085,-88.1395,38.65,11111222 
DISL,ioos:station:DISL:CATA:1,2019-11-03T23:36:00Z,30.3085,-88.1395,48.39,11111222 
DISL,ioos:station:DISL:CATA:1,2019-11-04T00:36:00Z,30.3085,-88.1395,52.52,11111222 
DISL,ioos:station:DISL:CATA:1,2019-11-04T01:36:00Z,30.3085,-88.1395,54.27,11111222 
DISL,ioos:station:DISL:CATA:1,2019-11-04T02:36:00Z,30.3085,-88.1395,62.02,11111222 
DISL,ioos:station:DISL:CATA:1,2019-11-04T03:36:00Z,30.3085,-88.1395,61.03,11111222 
DISL,ioos:station:DISL:CATA:1,2019-11-04T04:36:00Z,30.3085,-88.1395,70.63,11111222 
DISL,ioos:station:DISL:CATA:1,2019-11-04T05:36:00Z,30.3085,-88.1395,77.45,11111222 
DISL,ioos:station:DISL:CATA:1,2019-11-04T16:06:00Z,30.3085,-88.1395,76.23,11111222 
DISL,ioos:station:DISL:CATA:1,2019-11-04T16:36:00Z,30.3085,-88.1395,75.57,11111222 
DISL,ioos:station:DISL:CATA:1,2019-11-04T17:36:00Z,30.3085,-88.1395,73.51,11111222 
DISL,ioos:station:DISL:CATA:1,2019-11-04T18:36:00Z,30.3085,-88.1395,63.11,11111222 
DISL,ioos:station:DISL:CATA:1,2019-11-04T19:36:00Z,30.3085,-88.1395,69.28,11111222 
DISL,ioos:station:DISL:CATA:1,2019-11-04T20:36:00Z,30.3085,-88.1395,67.77,11111222 
DISL,ioos:station:DISL:CATA:1,2019-11-04T21:36:00Z,30.3085,-88.1395,67.02,11111222 
DISL,ioos:station:DISL:CATA:1,2019-11-04T22:36:00Z,30.3085,-88.1395,70.9,11111222 
DISL,ioos:station:DISL:CATA:1,2019-11-04T23:36:00Z,30.3085,-88.1395,74.07,11111222 
DISL,ioos:station:DISL:CATA:1,2019-11-05T00:36:00Z,30.3085,-88.1395,75.78,11111222 
DISL,ioos:station:DISL:CATA:1,2019-11-05T01:36:00Z,30.3085,-88.1395,79.11,11111222 
DISL,ioos:station:DISL:CATA:1,2019-11-05T02:36:00Z,30.3085,-88.1395,74.79,11111222 
DISL,ioos:station:DISL:CATA:1,2019-11-05T03:36:00Z,30.3085,-88.1395,80.8,11111222 
DISL,ioos:station:DISL:CATA:1,2019-11-05T04:36:00Z,30.3085,-88.1395,74.2,11111222 
DISL,ioos:station:DISL:CATA:1,2019-11-05T05:36:00Z,30.3085,-88.1395,81.1,11111222 
DISL,ioos:station:DISL:CATA:1,2019-11-05T06:36:00Z,30.3085,-88.1395,79.22,11111222 
DISL,ioos:station:DISL:CATA:1,2019-11-05T07:36:00Z,30.3085,-88.1395,78.58,11111222 
DISL,ioos:station:DISL:CATA:1,2019-11-05T08:36:00Z,30.3085,-88.1395,76.28,11111222 
DISL,ioos:station:DISL:CATA:1,2019-11-05T09:36:00Z,30.3085,-88.1395,79.95,11111222 
DISL,ioos:station:DISL:CATA:1,2019-11-05T10:36:00Z,30.3085,-88.1395,79.89,11111222 
DISL,ioos:station:DISL:CATA:1,2019-11-05T11:36:00Z,30.3085,-88.1395,78.62,11111222 
DISL,ioos:station:DISL:CATA:1,2019-11-05T12:36:00Z,30.3085,-88.1395,81.2,11111222 
DISL,ioos:station:DISL:CATA:1,2019-11-05T13:36:00Z,30.3085,-88.1395,78.19,11111222 
DISL,ioos:station:DISL:CATA:1,2019-11-05T14:36:00Z,30.3085,-88.1395,79.45,11111222 
DISL,ioos:station:DISL:CATA:1,2019-11-05T15:36:00Z,30.3085,-88.1395,80.1,11111222 
DISL,ioos:station:DISL:CATA:1,2019-11-05T16:36:00Z,30.3085,-88.1395,80.0,11111222 
DISL,ioos:station:DISL:CATA:1,2019-11-05T17:36:00Z,30.3085,-88.1395,76.99,11111222 
DISL,ioos:station:DISL:CATA:1,2019-11-05T18:36:00Z,30.3085,-88.1395,73.8,11111222 
DISL,ioos:station:DISL:CATA:1,2019-11-05T19:36:00Z,30.3085,-88.1395,49.71,11111222 
DISL,ioos:station:DISL:CATA:1,2019-11-05T20:36:00Z,30.3085,-88.1395,57.18,11111222 
DISL,ioos:station:DISL:CATA:1,2019-11-05T21:36:00Z,30.3085,-88.1395,39.94,11111222 
DISL,ioos:station:DISL:CATA:1,2019-11-05T22:36:00Z,30.3085,-88.1395,48.2,11111222 
DISL,ioos:station:DISL:CATA:1,2019-11-05T23:36:00Z,30.3085,-88.1395,55.86,11111222 
DISL,ioos:station:DISL:CATA:1,2019-11-06T00:36:00Z,30.3085,-88.1395,59.91,11111222 
DISL,ioos:station:DISL:CATA:1,2019-11-06T01:36:00Z,30.3085,-88.1395,62.86,11111222 
DISL,ioos:station:DISL:CATA:1,2019-11-06T02:36:00Z,30.3085,-88.1395,66.8,11111222 
DISL,ioos:station:DISL:CATA:1,2019-11-06T03:36:00Z,30.3085,-88.1395,64.47,11111222 
DISL,ioos:station:DISL:CATA:1,2019-11-06T04:36:00Z,30.3085,-88.1395,66.39,11111222 
DISL,ioos:station:DISL:CATA:1,2019-11-06T05:36:00Z,30.3085,-88.1395,72.35,11111222 
DISL,ioos:station:DISL:CATA:1,2019-11-06T06:36:00Z,30.3085,-88.1395,69.85,11111222 
DISL,ioos:station:DISL:CATA:1,2019-11-06T07:36:00Z,30.3085,-88.1395,74.48,11111222 
DISL,ioos:station:DISL:CATA:1,2019-11-06T08:36:00Z,30.3085,-88.1395,76.78,11111222 
DISL,ioos:station:DISL:CATA:1,2019-11-06T09:36:00Z,30.3085,-88.1395,79.62,11111222 
DISL,ioos:station:DISL:CATA:1,2019-11-06T10:36:00Z,30.3085,-88.1395,79.7,11111222 
DISL,ioos:station:DISL:CATA:1,2019-11-06T11:36:00Z,30.3085,-88.1395,82.4,11111222 
DISL,ioos:station:DISL:CATA:1,2019-11-06T12:36:00Z,30.3085,-88.1395,82.2,11111222 
DISL,ioos:station:DISL:CATA:1,2019-11-06T13:36:00Z,30.3085,-88.1395,81.8,11111222 
DISL,ioos:station:DISL:CATA:1,2019-11-06T14:36:00Z,30.3085,-88.1395,81.0,11111222 
DISL,ioos:station:DISL:CATA:1,2019-11-06T15:36:00Z,30.3085,-88.1395,81.6,11111222 
DISL,ioos:station:DISL:CATA:1,2019-11-06T16:36:00Z,30.3085,-88.1395,82.3,11111222 
DISL,ioos:station:DISL:CATA:1,2019-11-06T17:36:00Z,30.3085,-88.1395,79.93,11111222 
DISL,ioos:station:DISL:CATA:1,2019-11-06T18:36:00Z,30.3085,-88.1395,77.81,11111222 
DISL,ioos:station:DISL:CATA:1,2019-11-06T19:36:00Z,30.3085,-88.1395,76.64,11111222 
DISL,ioos:station:DISL:CATA:1,2019-11-06T20:36:00Z,30.3085,-88.1395,77.16,11111222 
DISL,ioos:station:DISL:CATA:1,2019-11-06T21:36:00Z,30.3085,-88.1395,82.3,11111222 
DISL,ioos:station:DISL:CATA:1,2019-11-06T22:36:00Z,30.3085,-88.1395,82.8,11111222 
DISL,ioos:station:DISL:CATA:1,2019-11-06T23:36:00Z,30.3085,-88.1395,87.1,11111222 
DISL,ioos:station:DISL:CATA:1,2019-11-07T00:36:00Z,30.3085,-88.1395,85.9,11111222 
DISL,ioos:station:DISL:CATA:1,2019-11-07T01:36:00Z,30.3085,-88.1395,89.2,11111222 
DISL,ioos:station:DISL:CATA:1,2019-11-07T02:36:00Z,30.3085,-88.1395,90.9,11111222 
DISL,ioos:station:DISL:CATA:1,2019-11-07T03:36:00Z,30.3085,-88.1395,90.0,11111222 
DISL,ioos:station:DISL:CATA:1,2019-11-07T04:36:00Z,30.3085,-88.1395,91.2,11111222 
DISL,ioos:station:DISL:CATA:1,2019-11-07T05:36:00Z,30.3085,-88.1395,91.4,11111222 
DISL,ioos:station:DISL:CATA:1,2019-11-07T06:36:00Z,30.3085,-88.1395,92.5,11111222 
DISL,ioos:station:DISL:CATA:1,2019-11-07T07:36:00Z,30.3085,-88.1395,90.8,11111222 
DISL,ioos:station:DISL:CATA:1,2019-11-07T08:36:00Z,30.3085,-88.1395,90.1,11111222 
DISL,ioos:station:DISL:CATA:1,2019-11-07T09:36:00Z,30.3085,-88.1395,91.3,11111222 
DISL,ioos:station:DISL:CATA:1,2019-11-07T10:36:00Z,30.3085,-88.1395,91.3,11111222 
DISL,ioos:station:DISL:CATA:1,2019-11-07T11:36:00Z,30.3085,-88.1395,92.3,11111222 
DISL,ioos:station:DISL:CATA:1,2019-11-07T12:36:00Z,30.3085,-88.1395,92.8,11111222 
DISL,ioos:station:DISL:CATA:1,2019-11-07T13:36:00Z,30.3085,-88.1395,93.1,11111222 
DISL,ioos:station:DISL:CATA:1,2019-11-07T14:36:00Z,30.3085,-88.1395,92.5,11111222 
DISL,ioos:station:DISL:CATA:1,2019-11-07T15:36:00Z,30.3085,-88.1395,93.6,11111222 
DISL,ioos:station:DISL:CATA:1,2019-11-07T16:36:00Z,30.3085,-88.1395,92.8,11111222 
DISL,ioos:station:DISL:CATA:1,2019-11-07T17:36:00Z,30.3085,-88.1395,92.3,11111222 
DISL,ioos:station:DISL:CATA:1,2019-11-07T18:36:00Z,30.3085,-88.1395,91.8,11111222 
DISL,ioos:station:DISL:CATA:1,2019-11-07T19:36:00Z,30.3085,-88.1395,86.5,11111222 
DISL,ioos:station:DISL:CATA:1,2019-11-07T20:36:00Z,30.3085,-88.1395,87.7,11111222 
DISL,ioos:station:DISL:CATA:1,2019-11-07T21:36:00Z,30.3085,-88.1395,89.5,11111222 
DISL,ioos:station:DISL:CATA:1,2019-11-07T22:36:00Z,30.3085,-88.1395,94.8,11111222 
DISL,ioos:station:DISL:CATA:1,2019-11-07T23:36:00Z,30.3085,-88.1395,96.8,11111222 
DISL,ioos:station:DISL:CATA:1,2019-11-08T00:36:00Z,30.3085,-88.1395,97.8,11111222 
DISL,ioos:station:DISL:CATA:1,2019-11-08T01:36:00Z,30.3085,-88.1395,97.8,11111222 
DISL,ioos:station:DISL:CATA:1,2019-11-08T02:36:00Z,30.3085,-88.1395,97.6,11111222 
DISL,ioos:station:DISL:CATA:1,2019-11-08T03:36:00Z,30.3085,-88.1395,97.5,11111222 
DISL,ioos:station:DISL:CATA:1,2019-11-08T04:36:00Z,30.3085,-88.1395,96.8,11111222 
DISL,ioos:station:DISL:CATA:1,2019-11-08T05:36:00Z,30.3085,-88.1395,92.1,11111222 
DISL,ioos:station:DISL:CATA:1,2019-11-08T06:36:00Z,30.3085,-88.1395,88.4,11111222 
DISL,ioos:station:DISL:CATA:1,2019-11-08T07:36:00Z,30.3085,-88.1395,86.3,11111222 
DISL,ioos:station:DISL:CATA:1,2019-11-08T08:36:00Z,30.3085,-88.1395,79.52,11111222 
DISL,ioos:station:DISL:CATA:1,2019-11-08T09:36:00Z,30.3085,-88.1395,80.2,11111222 
DISL,ioos:station:DISL:CATA:1,2019-11-08T10:36:00Z,30.3085,-88.1395,79.83,11111222 
DISL,ioos:station:DISL:CATA:1,2019-11-08T11:36:00Z,30.3085,-88.1395,79.14,11111222 
DISL,ioos:station:DISL:CATA:1,2019-11-08T12:36:00Z,30.3085,-88.1395,78.57,11111222 
DISL,ioos:station:DISL:CATA:1,2019-11-08T13:36:00Z,30.3085,-88.1395,85.8,11111222 
DISL,ioos:station:DISL:CATA:1,2019-11-08T14:36:00Z,30.3085,-88.1395,85.0,11111222 
DISL,ioos:station:DISL:CATA:1,2019-11-08T15:36:00Z,30.3085,-88.1395,79.65,11111222 
DISL,ioos:station:DISL:CATA:1,2019-11-08T16:36:00Z,30.3085,-88.1395,81.2,11111222 
DISL,ioos:station:DISL:CATA:1,2019-11-08T17:36:00Z,30.3085,-88.1395,75.87,11111222 
DISL,ioos:station:DISL:CATA:1,2019-11-08T18:36:00Z,30.3085,-88.1395,75.02,11111222 
DISL,ioos:station:DISL:CATA:1,2019-11-08T19:36:00Z,30.3085,-88.1395,70.9,11111222 
DISL,ioos:station:DISL:CATA:1,2019-11-08T20:36:00Z,30.3085,-88.1395,74.81,11111222 
DISL,ioos:station:DISL:CATA:1,2019-11-08T21:36:00Z,30.3085,-88.1395,73.37,11111222 
DISL,ioos:station:DISL:CATA:1,2019-11-08T22:36:00Z,30.3085,-88.1395,73.1,11111222 
DISL,ioos:station:DISL:CATA:1,2019-11-08T23:36:00Z,30.3085,-88.1395,70.97,11111222 
DISL,ioos:station:DISL:CATA:1,2019-11-09T00:36:00Z,30.3085,-88.1395,70.94,11111222 
DISL,ioos:station:DISL:CATA:1,2019-11-09T01:36:00Z,30.3085,-88.1395,70.6,11111222 
DISL,ioos:station:DISL:CATA:1,2019-11-09T02:36:00Z,30.3085,-88.1395,66.6,11111222 
DISL,ioos:station:DISL:CATA:1,2019-11-09T03:36:00Z,30.3085,-88.1395,66.57,11111222 
DISL,ioos:station:DISL:CATA:1,2019-11-09T04:36:00Z,30.3085,-88.1395,71.41,11111222 
DISL,ioos:station:DISL:CATA:1,2019-11-09T05:36:00Z,30.3085,-88.1395,74.46,11111222 
DISL,ioos:station:DISL:CATA:1,2019-11-09T06:36:00Z,30.3085,-88.1395,74.25,11111222 
DISL,ioos:station:DISL:CATA:1,2019-11-09T07:36:00Z,30.3085,-88.1395,75.84,11111222 
DISL,ioos:station:DISL:CATA:1,2019-11-09T08:36:00Z,30.3085,-88.1395,77.34,11111222 
DISL,ioos:station:DISL:CATA:1,2019-11-09T09:36:00Z,30.3085,-88.1395,78.51,11111222 
DISL,ioos:station:DISL:CATA:1,2019-11-09T10:36:00Z,30.3085,-88.1395,80.5,11111222 
DISL,ioos:station:DISL:CATA:1,2019-11-09T11:36:00Z,30.3085,-88.1395,76.84,11111222 
DISL,ioos:station:DISL:CATA:1,2019-11-09T12:36:00Z,30.3085,-88.1395,76.8,11111222 
DISL,ioos:station:DISL:CATA:1,2019-11-09T13:36:00Z,30.3085,-88.1395,77.68,11111222 
DISL,ioos:station:DISL:CATA:1,2019-11-09T14:36:00Z,30.3085,-88.1395,79.99,11111222 
DISL,ioos:station:DISL:CATA:1,2019-11-09T15:36:00Z,30.3085,-88.1395,79.68,11111222 
DISL,ioos:station:DISL:CATA:1,2019-11-09T16:36:00Z,30.3085,-88.1395,78.03,11111222 
DISL,ioos:station:DISL:CATA:1,2019-11-09T17:36:00Z,30.3085,-88.1395,74.27,11111222 
DISL,ioos:station:DISL:CATA:1,2019-11-09T18:36:00Z,30.3085,-88.1395,68.82,11111222 
DISL,ioos:station:DISL:CATA:1,2019-11-09T19:36:00Z,30.3085,-88.1395,68.81,11111222 
DISL,ioos:station:DISL:CATA:1,2019-11-09T20:36:00Z,30.3085,-88.1395,63.59,11111222 
DISL,ioos:station:DISL:CATA:1,2019-11-09T21:36:00Z,30.3085,-88.1395,52.21,11111222 
DISL,ioos:station:DISL:CATA:1,2019-11-09T22:36:00Z,30.3085,-88.1395,72.89,11111222 
DISL,ioos:station:DISL:CATA:1,2019-11-09T23:36:00Z,30.3085,-88.1395,75.88,11111222 
DISL,ioos:station:DISL:CATA:1,2019-11-10T00:36:00Z,30.3085,-88.1395,82.2,11111222 
DISL,ioos:station:DISL:CATA:1,2019-11-10T01:36:00Z,30.3085,-88.1395,84.4,11111222 
DISL,ioos:station:DISL:CATA:1,2019-11-10T02:36:00Z,30.3085,-88.1395,81.7,11111222 
DISL,ioos:station:DISL:CATA:1,2019-11-10T03:36:00Z,30.3085,-88.1395,82.1,11111222 
DISL,ioos:station:DISL:CATA:1,2019-11-10T04:36:00Z,30.3085,-88.1395,81.7,11111222 
DISL,ioos:station:DISL:CATA:1,2019-11-10T05:36:00Z,30.3085,-88.1395,88.2,11111222 
DISL,ioos:station:DISL:CATA:1,2019-11-10T06:36:00Z,30.3085,-88.1395,84.7,11111222 
DISL,ioos:station:DISL:CATA:1,2019-11-10T07:36:00Z,30.3085,-88.1395,84.7,11111222 
DISL,ioos:station:DISL:CATA:1,2019-11-10T08:36:00Z,30.3085,-88.1395,86.1,11111222 
DISL,ioos:station:DISL:CATA:1,2019-11-10T09:36:00Z,30.3085,-88.1395,86.7,11111222 
DISL,ioos:station:DISL:CATA:1,2019-11-10T10:36:00Z,30.3085,-88.1395,85.4,11111222 
DISL,ioos:station:DISL:CATA:1,2019-11-10T11:36:00Z,30.3085,-88.1395,79.02,11111222 
DISL,ioos:station:DISL:CATA:1,2019-11-10T12:36:00Z,30.3085,-88.1395,71.35,11111222 
DISL,ioos:station:DISL:CATA:1,2019-11-10T13:36:00Z,30.3085,-88.1395,72.72,11111222 
DISL,ioos:station:DISL:CATA:1,2019-11-10T14:36:00Z,30.3085,-88.1395,71.02,11111222 
DISL,ioos:station:DISL:CATA:1,2019-11-10T15:36:00Z,30.3085,-88.1395,73.79,11111222 
DISL,ioos:station:DISL:CATA:1,2019-11-10T16:36:00Z,30.3085,-88.1395,74.37,11111222 
DISL,ioos:station:DISL:CATA:1,2019-11-10T17:36:00Z,30.3085,-88.1395,73.7,11111222 
DISL,ioos:station:DISL:CATA:1,2019-11-10T18:36:00Z,30.3085,-88.1395,61.29,11111222 
DISL,ioos:station:DISL:CATA:1,2019-11-10T19:36:00Z,30.3085,-88.1395,61.83,11111222 
DISL,ioos:station:DISL:CATA:1,2019-11-10T20:36:00Z,30.3085,-88.1395,59.46,11111222 
DISL,ioos:station:DISL:CATA:1,2019-11-10T21:36:00Z,30.3085,-88.1395,64.4,11111222 
DISL,ioos:station:DISL:CATA:1,2019-11-10T22:36:00Z,30.3085,-88.1395,66.81,11111222 
DISL,ioos:station:DISL:CATA:1,2019-11-10T23:36:00Z,30.3085,-88.1395,74.71,11111222 
DISL,ioos:station:DISL:CATA:1,2019-11-11T00:36:00Z,30.3085,-88.1395,78.42,11111222 
DISL,ioos:station:DISL:CATA:1,2019-11-11T01:36:00Z,30.3085,-88.1395,79.96,11111222 
DISL,ioos:station:DISL:CATA:1,2019-11-11T02:36:00Z,30.3085,-88.1395,79.17,11111222 
DISL,ioos:station:DISL:CATA:1,2019-11-11T03:36:00Z,30.3085,-88.1395,78.15,11111222 
DISL,ioos:station:DISL:CATA:1,2019-11-11T04:36:00Z,30.3085,-88.1395,77.67,11111222 
DISL,ioos:station:DISL:CATA:1,2019-11-11T05:36:00Z,30.3085,-88.1395,79.66,11111222 
DISL,ioos:station:DISL:CATA:1,2019-11-11T06:36:00Z,30.3085,-88.1395,81.1,11111222 
DISL,ioos:station:DISL:CATA:1,2019-11-11T07:36:00Z,30.3085,-88.1395,80.2,11111222 
DISL,ioos:station:DISL:CATA:1,2019-11-11T08:36:00Z,30.3085,-88.1395,75.62,11111222 
DISL,ioos:station:DISL:CATA:1,2019-11-11T09:36:00Z,30.3085,-88.1395,76.88,11111222 
DISL,ioos:station:DISL:CATA:1,2019-11-11T10:36:00Z,30.3085,-88.1395,77.71,11111222 
DISL,ioos:station:DISL:CATA:1,2019-11-11T11:36:00Z,30.3085,-88.1395,81.3,11111222 
DISL,ioos:station:DISL:CATA:1,2019-11-11T12:36:00Z,30.3085,-88.1395,83.6,11111222 
DISL,ioos:station:DISL:CATA:1,2019-11-11T13:36:00Z,30.3085,-88.1395,82.1,11111222 
DISL,ioos:station:DISL:CATA:1,2019-11-11T14:36:00Z,30.3085,-88.1395,83.2,11111222 
DISL,ioos:station:DISL:CATA:1,2019-11-11T15:36:00Z,30.3085,-88.1395,81.7,11111222 
DISL,ioos:station:DISL:CATA:1,2019-11-11T16:36:00Z,30.3085,-88.1395,81.9,11111222 
DISL,ioos:station:DISL:CATA:1,2019-11-11T17:36:00Z,30.3085,-88.1395,78.19,11111222 
DISL,ioos:station:DISL:CATA:1,2019-11-11T18:36:00Z,30.3085,-88.1395,82.4,11111222 
DISL,ioos:station:DISL:CATA:1,2019-11-11T19:36:00Z,30.3085,-88.1395,82.4,11111222 
DISL,ioos:station:DISL:CATA:1,2019-11-11T20:36:00Z,30.3085,-88.1395,82.2,11111222 
DISL,ioos:station:DISL:CATA:1,2019-11-11T21:36:00Z,30.3085,-88.1395,87.4,11111222 
DISL,ioos:station:DISL:CATA:1,2019-11-11T22:36:00Z,30.3085,-88.1395,89.3,11111222 
DISL,ioos:station:DISL:CATA:1,2019-11-11T23:36:00Z,30.3085,-88.1395,88.1,11111222 
DISL,ioos:station:DISL:CATA:1,2019-11-12T00:36:00Z,30.3085,-88.1395,88.9,11111222 
DISL,ioos:station:DISL:CATA:1,2019-11-12T01:36:00Z,30.3085,-88.1395,92.3,11111222 
DISL,ioos:station:DISL:CATA:1,2019-11-12T02:36:00Z,30.3085,-88.1395,87.3,11111222 
DISL,ioos:station:DISL:CATA:1,2019-11-12T03:36:00Z,30.3085,-88.1395,90.2,11111222 
DISL,ioos:station:DISL:CATA:1,2019-11-12T04:36:00Z,30.3085,-88.1395,92.9,11111222 
DISL,ioos:station:DISL:CATA:1,2019-11-12T05:06:00Z,30.3085,-88.1395,93.5,11111222 
DISL,ioos:station:DISL:CATA:1,2019-11-12T06:36:00Z,30.3085,-88.1395,91.8,11111222 
DISL,ioos:station:DISL:CATA:1,2019-11-12T07:36:00Z,30.3085,-88.1395,91.5,11111222 
DISL,ioos:station:DISL:CATA:1,2019-11-12T08:36:00Z,30.3085,-88.1395,92.7,11111222 
DISL,ioos:station:DISL:CATA:1,2019-11-12T09:36:00Z,30.3085,-88.1395,88.3,11111222 
DISL,ioos:station:DISL:CATA:1,2019-11-12T10:36:00Z,30.3085,-88.1395,85.5,11111222 
DISL,ioos:station:DISL:CATA:1,2019-11-12T11:36:00Z,30.3085,-88.1395,86.5,11111222 
DISL,ioos:station:DISL:CATA:1,2019-11-12T12:36:00Z,30.3085,-88.1395,85.9,11111222 
DISL,ioos:station:DISL:CATA:1,2019-11-12T13:36:00Z,30.3085,-88.1395,81.2,11111222 
DISL,ioos:station:DISL:CATA:1,2019-11-12T14:36:00Z,30.3085,-88.1395,82.6,11111222 
DISL,ioos:station:DISL:CATA:1,2019-11-12T15:36:00Z,30.3085,-88.1395,78.91,11111222 
DISL,ioos:station:DISL:CATA:1,2019-11-12T16:36:00Z,30.3085,-88.1395,75.47,11111222 
DISL,ioos:station:DISL:CATA:1,2019-11-12T17:36:00Z,30.3085,-88.1395,75.2,11111222 
DISL,ioos:station:DISL:CATA:1,2019-11-12T18:36:00Z,30.3085,-88.1395,69.98,11111222 
DISL,ioos:station:DISL:CATA:1,2019-11-12T19:36:00Z,30.3085,-88.1395,60.5,11111222 
DISL,ioos:station:DISL:CATA:1,2019-11-12T20:36:00Z,30.3085,-88.1395,49.66,11111222 
DISL,ioos:station:DISL:CATA:1,2019-11-12T21:36:00Z,30.3085,-88.1395,55.83,11111222 
DISL,ioos:station:DISL:CATA:1,2019-11-12T22:36:00Z,30.3085,-88.1395,53.75,11111222 
DISL,ioos:station:DISL:CATA:1,2019-11-12T23:36:00Z,30.3085,-88.1395,60.66,11111222 
DISL,ioos:station:DISL:CATA:1,2019-11-13T00:36:00Z,30.3085,-88.1395,58.12,11111222 
DISL,ioos:station:DISL:CATA:1,2019-11-13T01:36:00Z,30.3085,-88.1395,62.48,11111222 
DISL,ioos:station:DISL:CATA:1,2019-11-13T02:36:00Z,30.3085,-88.1395,59.1,11111222 
DISL,ioos:station:DISL:CATA:1,2019-11-13T03:36:00Z,30.3085,-88.1395,56.76,11111222 
DISL,ioos:station:DISL:CATA:1,2019-11-13T04:36:00Z,30.3085,-88.1395,60.26,11111222 
DISL,ioos:station:DISL:CATA:1,2019-11-13T05:36:00Z,30.3085,-88.1395,61.29,11111222 
DISL,ioos:station:DISL:CATA:1,2019-11-13T06:36:00Z,30.3085,-88.1395,62.64,11111222 
DISL,ioos:station:DISL:CATA:1,2019-11-13T07:36:00Z,30.3085,-88.1395,64.64,11111222 